Regional Weather Roundup
Issued by NWS

Home | Current Version | Previous Version | Graphics & Text | Print | Product List | Glossary On
Versions: 1 2 3 4 5 6 7 8 9 10 11 12 13 14 15 16 17 18 19 20 21 22 23 24 25 26 27
000
ASUS45 KCYS 181410
RWRWY

WYOMING REGIONAL WEATHER ROUNDUP
NATIONAL WEATHER SERVICE CHEYENNE WY
800 AM MDT WED OCT 18 2017

NOTE:  "FAIR" INDICATES FEW OR NO CLOUDS BELOW 12,000 FEET
WITH NO SIGNIFICANT WEATHER AND/OR OBSTRUCTIONS TO VISIBILITY.

WYZ001-181500-
YELLOWSTONE NATIONAL PARK

CITY           SKY/WX    TMP DP  RH WIND       PRES   REMARKS
LK YELLOWSTONE NOT AVBL
W YELLOWSTONE  NOT AVBL

$$
WYZ002>013-054>058-071-098>099-181500-
NORTHERN WYOMING

CITY           SKY/WX    TMP DP  RH WIND       PRES   REMARKS
JACKSON        FAIR      28  21  75 NE3       30.21R
CODY           FAIR      55  16  21 SW3       30.06S
GREYBULL       FAIR      37  25  61 SE7       30.03R WCI  32
WORLAND        FAIR      36  25  64 SE3       30.04R
SHERIDAN       FAIR      37  25  61 NW7       30.05R WCI  32
BUFFALO        FAIR      47  16  29 VRB3      30.07R
GILLETTE       FAIR      40  27  59 CALM      30.07R
HULETT         FAIR      43  27  52 NE5       30.08R
NEWCASTLE      FAIR      39  23  52 CALM      30.03R

$$
WYZ014>020-022>026-101>103-181500-
CENTRAL WYOMING

CITY           SKY/WX    TMP DP  RH WIND       PRES   REMARKS
BIG PINEY      FAIR      24  13  62 NW8       30.25R WCI  15
PINEDALE       FAIR      25  18  74 W6        30.26R WCI  18
DUBOIS         FAIR      36  14  41 NW10      30.18R WCI  28
LANDER         FAIR      39  21  48 W7        30.11R WCI  34
RIVERTON       FAIR      48  16  27 W15       30.11R
CASPER         FAIR      45  14  28 W9        30.09R
DOUGLAS        FAIR      41  16  36 NW7       30.07R

$$
WYZ021-027>030-104>119-181500-
SOUTHERN WYOMING

CITY           SKY/WX    TMP DP  RH WIND       PRES   REMARKS
EVANSTON       FAIR      44   7  21 S6        30.28R
KEMMERER       FAIR      36  10  35 N3        30.28R
FORT BRIDGER   FAIR      47   8  20 W9        30.30R
ROCK SPRINGS   FAIR      39   6  25 SW12      30.25S WCI  32
DIXON          FAIR      27  15  61 E9        30.31R WCI  18
RAWLINS        FAIR      41   8  25 W8        30.24R
SARATOGA       FAIR      32  14  47 SE10      30.27R WCI  24
LARAMIE        FAIR      38  11  32 W10       30.22R WCI  31
CHEYENNE       FAIR      55   9  16 SW13G22   30.14R
TORRINGTON     FAIR      52  12  20 W5        30.01R
PINE BLUFFS    FAIR      52  18  25 W7        30.09R

$$




USA.gov is the U.S. government's official web portal to all federal, state and local government web resources and services.